K5NCO Weather Reports


Display with metric or nautical units.
time (UTC)temp
F
wind
direction
speed
MPH
gust
MPH
rain 1hr
in
rain 24hr
in
rain mn
in
humidity
%
barometer
mb
20260903235247 87 82 10.0 13.0 0.00 0.00 0.00 66 1013.1
20260903234746 87 73 6.0 9.0 0.00 0.00 0.00 66 1013.1
20260903234243 88 40 6.0 8.0 0.00 0.00 0.00 65 1013.2
20260903233738 88 104 7.0 10.0 0.00 0.00 0.00 65 1013.0
20260903233234 88 110 12.0 17.0 0.00 0.00 0.00 65 1012.8
20260903232732 88 76 10.0 13.0 0.00 0.00 0.00 65 1012.8
20260903232229 88 59 12.0 16.0 0.00 0.00 0.00 65 1012.9
20260903231728 88 145 10.0 14.0 0.00 0.00 0.00 66 1013.0
20260903231223 89 116 11.0 13.0 0.00 0.00 0.00 66 1013.0
20260903230720 89 127 15.0 17.0 0.00 0.00 0.00 65 1012.9
20260903230220 89 63 10.0 18.0 0.00 0.00 0.00 65 1012.9
20260903225716 90 88 8.0 11.0 0.00 0.00 0.00 64 1012.7
20260903225212 91 142 9.0 11.0 0.00 0.00 0.00 64 1012.6
20260903224708 91 133 3.0 7.0 0.00 0.00 0.00 65 1012.6
20260903224204 91 78 10.0 14.0 0.00 0.00 0.00 65 1012.5
20260903223659 91 151 4.0 6.0 0.00 0.00 0.00 66 1012.4
20260903223157 92 67 15.0 22.0 0.00 0.00 0.00 64 1012.3
20260903222652 92 78 15.0 21.0 0.00 0.00 0.00 62 1012.5
20260903222150 92 97 18.0 24.0 0.00 0.00 0.00 62 1012.2
20260903221646 93 108 6.0 7.0 0.00 0.00 0.00 62 1012.4
20260903221144 93 117 13.0 16.0 0.00 0.00 0.00 61 1012.4
20260903220643 92 83 9.0 10.0 0.00 0.00 0.00 60 1012.5
20260903220138 93 77 12.0 18.0 0.00 0.00 0.00 61 1012.2
20260903215637 93 89 6.0 10.0 0.00 0.00 0.00 59 1012.4
20260903215133 94 71 7.0 13.0 0.00 0.00 0.00 56 1012.2
20260903214631 93 78 8.0 13.0 0.00 0.00 0.00 55 1012.3
20260903214127 93 65 5.0 8.0 0.00 0.00 0.00 56 1012.5
20260903213621 94 121 4.0 6.0 0.00 0.00 0.00 56 1012.5
20260903213117 93 88 10.0 14.0 0.00 0.00 0.00 57 1012.4
20260903212613 93 100 8.0 10.0 0.00 0.00 0.00 56 1012.6
20260903212108 94 116 7.0 10.0 0.00 0.00 0.00 55 1012.3
20260903211603 94 50 4.0 9.0 0.00 0.00 0.00 55 1012.5
20260903211100 94 92 10.0 13.0 0.00 0.00 0.00 53 1012.5
20260903210555 95 52 7.0 11.0 0.00 0.00 0.00 53 1012.7
20260903210050 94 83 11.0 15.0 0.00 0.00 0.00 53 1012.8
20260903205549 95 78 9.0 13.0 0.00 0.00 0.00 54 1012.7
20260903205044 94 83 4.0 6.0 0.00 0.00 0.00 54 1012.8
20260903204540 94 119 8.0 10.0 0.00 0.00 0.00 56 1012.8
20260903204035 94 51 10.0 16.0 0.00 0.00 0.00 55 1012.9
20260903203531 95 86 6.0 10.0 0.00 0.00 0.00 54 1013.1
20260903203030 95 94 8.0 11.0 0.00 0.00 0.00 53 1013.0
20260903202526 95 68 5.0 8.0 0.00 0.00 0.00 54 1013.1
20260903202021 95 127 5.0 6.0 0.00 0.00 0.00 54 1013.1
20260903201516 95 70 11.0 16.0 0.00 0.00 0.00 54 1013.4
20260903201015 95 79 9.0 11.0 0.00 0.00 0.00 53 1013.4
20260903200510 96 107 4.0 7.0 0.00 0.00 0.00 51 1013.2
20260903200005 95 71 1.0 2.0 0.00 0.00 0.00 54 1013.5
20260903195501 96 99 8.0 13.0 0.00 0.00 0.00 53 1013.4
20260903194956 96 63 6.0 10.0 0.00 0.00 0.00 51 1013.5
20260903194451 95 108 5.0 6.0 0.00 0.00 0.00 52 1013.5
20260903193947 95 71 2.0 3.0 0.00 0.00 0.00 53 1013.6
20260903193443 95 68 4.0 6.0 0.00 0.00 0.00 53 1013.5
20260903192938 95 79 4.0 8.0 0.00 0.00 0.00 54 1013.8
20260903192435 94 142 7.0 9.0 0.00 0.00 0.00 52 1013.8
20260903191930 93 104 6.0 8.0 0.00 0.00 0.00 54 1013.9
20260903191426 93 131 1.0 3.0 0.00 0.00 0.00 54 1013.9
20260903190925 93 88 4.0 6.0 0.00 0.00 0.00 55 1014.1
20260903190425 93 171 3.0 6.0 0.00 0.00 0.00 54 1014.1
20260903185920 93 74 2.0 3.0 0.00 0.00 0.00 56 1014.3
20260903185415 94 137 5.0 7.0 0.00 0.00 0.00 55 1014.5
20260903184909 94 117 3.0 3.0 0.00 0.00 0.00 54 1014.5
20260903184406 93 202 5.0 7.0 0.00 0.00 0.00 54 1014.6
20260903183906 93 145 2.0 2.0 0.00 0.00 0.00 53 1014.7
20260903183401 94 130 6.0 8.0 0.00 0.00 0.00 53 1014.6
20260903182855 94 6 0.0 0.0 0.00 0.00 0.00 54 1014.7
20260903182354 95 163 3.0 3.0 0.00 0.00 0.00 52 1014.7
20260903181849 95 154 5.0 7.0 0.00 0.00 0.00 53 1014.7
20260903181343 93 60 2.0 2.0 0.00 0.00 0.00 55 1014.9
20260903180838 93 143 2.0 2.0 0.00 0.00 0.00 55 1015.0
20260903180337 91 112 4.0 7.0 0.00 0.00 0.00 58 1015.1
20260903175832 92 177 4.0 4.0 0.00 0.00 0.00 58 1015.3
20260903175331 92 139 6.0 9.0 0.00 0.00 0.00 56 1015.4
20260903174825 91 44 2.0 2.0 0.00 0.00 0.00 58 1015.4
20260903174321 92 99 9.0 10.0 0.00 0.00 0.00 58 1015.5
20260903173815 91 79 2.0 2.0 0.00 0.00 0.00 59 1015.4
20260903173311 92 94 5.0 6.0 0.00 0.00 0.00 57 1015.5
20260903172807 91 41 3.0 4.0 0.00 0.00 0.00 61 1015.4
20260903172301 92 127 2.0 3.0 0.00 0.00 0.00 59 1015.5
20260903171756 92 186 3.0 6.0 0.00 0.00 0.00 57 1015.6
20260903171252 91 215 7.0 10.0 0.00 0.00 0.00 58 1015.5
20260903170750 90 191 3.0 4.0 0.00 0.00 0.00 60 1015.6
20260903170246 90 221 2.0 2.0 0.00 0.00 0.00 62 1015.6
20260903165744 90 181 10.0 13.0 0.00 0.00 0.00 62 1015.7
20260903165239 90 188 8.0 10.0 0.00 0.00 0.00 62 1015.6
20260903164739 89 86 7.0 9.0 0.00 0.00 0.00 63 1015.7
20260903164235 89 199 8.0 10.0 0.00 0.00 0.00 65 1015.4
20260903163734 89 195 8.0 9.0 0.00 0.00 0.00 64 1015.6
20260903163231 89 144 6.0 8.0 0.00 0.00 0.00 65 1015.5
20260903162726 89 168 11.0 14.0 0.00 0.00 0.00 65 1015.6
20260903162222 90 138 6.0 8.0 0.00 0.00 0.00 64 1015.6
20260903161718 88 210 5.0 6.0 0.00 0.00 0.00 65 1015.5
20260903161213 88 165 8.0 10.0 0.00 0.00 0.00 66 1015.5
20260903160709 88 177 10.0 11.0 0.00 0.00 0.00 66 1015.4
20260903160202 88 193 11.0 13.0 0.00 0.00 0.00 66 1015.5
20260903155701 88 178 10.0 10.0 0.00 0.00 0.00 67 1015.5
20260903155156 88 211 7.0 9.0 0.00 0.00 0.00 67 1015.4
20260903154652 88 212 3.0 4.0 0.00 0.00 0.00 66 1015.5
20260903154148 87 230 8.0 10.0 0.00 0.00 0.00 69 1015.6
20260903153644 87 155 10.0 13.0 0.00 0.00 0.00 69 1015.5
20260903153139 86 217 8.0 10.0 0.00 0.00 0.00 70 1015.5
20260903152635 86 157 7.0 9.0 0.00 0.00 0.00 71 1015.4
20260903152131 86 201 6.0 9.0 0.00 0.00 0.00 70 1015.5
20260903151630 86 221 7.0 9.0 0.00 0.00 0.00 72 1015.3
20260903151125 86 146 4.0 6.0 0.00 0.00 0.00 73 1015.5
20260903150620 86 175 9.0 10.0 0.00 0.00 0.00 73 1015.3
20260903150115 86 176 9.0 11.0 0.00 0.00 0.00 71 1015.3
20260903145615 86 203 6.0 9.0 0.00 0.00 0.00 73 1015.4
20260903145110 85 199 8.0 10.0 0.00 0.00 0.00 75 1015.5
20260903144609 85 218 4.0 6.0 0.00 0.00 0.00 75 1015.7
20260903144105 85 214 5.0 7.0 0.00 0.00 0.00 76 1015.4
20260903143601 85 250 6.0 7.0 0.00 0.00 0.00 75 1015.4
20260903143056 85 204 11.0 14.0 0.00 0.00 0.00 76 1015.4
20260903142552 85 298 9.0 10.0 0.00 0.00 0.00 77 1015.3
20260903142049 84 145 4.0 6.0 0.00 0.00 0.00 78 1015.3
20260903141549 83 229 7.0 10.0 0.00 0.00 0.00 79 1015.4
20260903141044 83 195 3.0 6.0 0.00 0.00 0.00 80 1015.4
20260903140540 82 170 9.0 13.0 0.00 0.00 0.00 80 1015.5
20260903140035 82 183 8.0 11.0 0.00 0.00 0.00 81 1015.6
20260903135531 82 131 9.0 14.0 0.00 0.00 0.00 80 1015.3
20260903135031 83 171 14.0 19.0 0.00 0.00 0.00 80 1015.3
20260903134530 82 186 6.0 8.0 0.00 0.00 0.00 81 1015.3
20260903134026 82 198 6.0 8.0 0.00 0.00 0.00 83 1015.4
20260903133524 82 176 12.0 14.0 0.00 0.00 0.00 83 1015.4
20260903133019 81 174 11.0 14.0 0.00 0.00 0.00 84 1015.4
20260903132514 81 185 9.0 10.0 0.00 0.00 0.00 84 1015.4
20260903132009 81 215 8.0 10.0 0.00 0.00 0.00 84 1015.6
20260903131504 81 188 5.0 7.0 0.00 0.00 0.00 85 1015.4
20260903130957 81 181 6.0 7.0 0.00 0.00 0.00 85 1015.6
20260903130452 81 218 6.0 8.0 0.00 0.00 0.00 85 1015.6
20260903125950 81 152 3.0 6.0 0.00 0.00 0.00 85 1015.6
20260903125444 81 180 6.0 8.0 0.00 0.00 0.00 85 1015.4
20260903124939 81 183 6.0 9.0 0.00 0.00 0.00 85 1015.2
20260903124434 81 190 10.0 13.0 0.00 0.00 0.00 86 1015.3
20260903123933 81 181 9.0 10.0 0.00 0.00 0.00 86 1015.3
20260903123428 81 130 3.0 6.0 0.00 0.00 0.00 86 1015.3
20260903122926 81 192 4.0 6.0 0.00 0.00 0.00 86 1015.1
20260903122421 81 195 10.0 11.0 0.00 0.00 0.00 86 1015.2
20260903121920 81 178 7.0 9.0 0.00 0.00 0.00 86 1015.2
20260903121415 81 151 6.0 7.0 0.00 0.00 0.00 86 1015.0
20260903120911 81 189 7.0 8.0 0.00 0.00 0.00 86 1015.1
20260903120409 81 159 4.0 4.0 0.00 0.00 0.00 87 1015.1
20260903115908 81 185 9.0 11.0 0.00 0.00 0.00 87 1015.0
20260903115403 81 194 5.0 6.0 0.00 0.00 0.00 87 1014.9
20260903114858 81 181 8.0 11.0 0.00 0.00 0.00 87 1015.1
20260903114354 80 203 6.0 8.0 0.00 0.00 0.00 87 1015.0
20260903113849 81 179 6.0 7.0 0.00 0.00 0.00 87 1015.0
20260903113344 81 173 4.0 8.0 0.00 0.00 0.00 87 1015.0
20260903112840 81 180 6.0 7.0 0.00 0.00 0.00 87 1014.9
20260903112336 81 165 4.0 4.0 0.00 0.00 0.00 87 1015.1
20260903111834 81 153 9.0 11.0 0.00 0.00 0.00 86 1015.1
20260903111329 81 185 10.0 13.0 0.00 0.00 0.00 87 1015.0
20260903110826 81 179 10.0 14.0 0.00 0.00 0.00 87 1014.9
20260903110321 81 180 6.0 7.0 0.00 0.00 0.00 87 1014.8
20260903105820 80 131 8.0 9.0 0.00 0.00 0.00 87 1014.8
20260903105310 81 188 3.0 6.0 0.00 0.00 0.00 87 1014.8
20260903104809 80 153 8.0 10.0 0.00 0.00 0.00 87 1014.8
20260903104304 80 175 7.0 8.0 0.00 0.00 0.00 87 1014.8
20260903103801 80 181 8.0 10.0 0.00 0.00 0.00 87 1014.7
20260903103256 80 187 8.0 10.0 0.00 0.00 0.00 87 1014.5
20260903102751 80 173 8.0 10.0 0.00 0.00 0.00 87 1014.7
20260903102246 80 193 9.0 13.0 0.00 0.00 0.00 87 1014.6
20260903101744 80 186 6.0 8.0 0.00 0.00 0.00 87 1014.7
20260903101240 80 189 13.0 15.0 0.00 0.00 0.00 87 1014.5
20260903100736 80 219 4.0 6.0 0.00 0.00 0.00 87 1014.6
20260903100230 80 188 11.0 15.0 0.00 0.00 0.00 87 1014.7
20260903095727 80 167 6.0 7.0 0.00 0.00 0.00 87 1014.3
20260903095223 80 168 9.0 11.0 0.00 0.00 0.00 87 1014.6
20260903094718 80 178 5.0 8.0 0.00 0.00 0.00 86 1014.6
20260903094213 80 140 5.0 8.0 0.00 0.00 0.00 87 1014.7
20260903093708 80 132 5.0 6.0 0.00 0.00 0.00 86 1014.7
20260903093203 80 182 5.0 7.0 0.00 0.00 0.00 86 1014.8
20260903092657 81 179 10.0 13.0 0.00 0.00 0.00 86 1014.7
20260903092151 81 139 12.0 15.0 0.00 0.00 0.00 86 1015.0
20260903091650 81 140 5.0 6.0 0.00 0.00 0.00 86 1014.8
20260903091144 81 196 8.0 10.0 0.00 0.00 0.00 86 1015.0
20260903090640 81 182 8.0 10.0 0.00 0.00 0.00 85 1014.8
20260903090139 81 174 8.0 11.0 0.00 0.00 0.00 85 1014.9
20260903085638 81 175 9.0 13.0 0.00 0.00 0.00 85 1014.9
20260903085134 81 204 5.0 7.0 0.00 0.00 0.00 85 1015.0
20260903084631 81 206 6.0 7.0 0.00 0.00 0.00 85 1014.9
20260903084126 81 159 6.0 7.0 0.00 0.00 0.00 85 1014.8
20260903083621 81 212 6.0 8.0 0.00 0.00 0.00 85 1015.2
20260903083116 81 180 4.0 4.0 0.00 0.00 0.00 84 1015.0
20260903082610 81 182 9.0 11.0 0.00 0.00 0.00 85 1014.9
20260903082106 81 174 6.0 8.0 0.00 0.00 0.00 85 1015.0
20260903081601 81 198 10.0 13.0 0.00 0.00 0.00 85 1015.1
20260903081057 81 113 6.0 9.0 0.00 0.00 0.00 84 1014.9
20260903080553 81 177 9.0 11.0 0.00 0.00 0.00 84 1014.9
20260903080049 81 157 2.0 2.0 0.00 0.00 0.00 84 1015.0
20260903075544 81 121 2.0 4.0 0.00 0.00 0.00 84 1015.0
20260903075040 81 92 7.0 8.0 0.00 0.00 0.00 84 1014.9
20260903074538 81 140 6.0 9.0 0.00 0.00 0.00 84 1014.9
20260903074033 81 135 10.0 13.0 0.00 0.00 0.00 83 1014.9
20260903073529 81 158 7.0 10.0 0.00 0.00 0.00 83 1015.0
20260903073025 81 184 12.0 15.0 0.00 0.00 0.00 83 1015.1
20260903072520 81 218 3.0 4.0 0.00 0.00 0.00 82 1015.3
20260903072016 82 186 9.0 13.0 0.00 0.00 0.00 82 1015.1
20260903071512 82 193 7.0 9.0 0.00 0.00 0.00 81 1015.1
20260903071007 82 182 10.0 13.0 0.00 0.00 0.00 81 1015.1
20260903070507 82 143 9.0 10.0 0.00 0.00 0.00 80 1015.2
20260903070003 82 197 6.0 8.0 0.00 0.00 0.00 80 1015.2
20260903065457 81 143 5.0 7.0 0.00 0.00 0.00 79 1015.2
20260903064956 82 153 4.0 6.0 0.00 0.00 0.00 79 1015.2
20260903064450 82 128 9.0 9.0 0.00 0.00 0.00 79 1015.2
20260903063947 81 117 6.0 8.0 0.00 0.00 0.00 79 1015.2
20260903063442 81 142 3.0 3.0 0.00 0.00 0.00 79 1015.3
20260903062937 81 185 5.0 9.0 0.00 0.00 0.00 79 1015.3
20260903062436 81 158 2.0 2.0 0.00 0.00 0.00 80 1015.3
20260903061932 81 112 5.0 7.0 0.00 0.00 0.00 80 1015.3
20260903061432 81 141 4.0 4.0 0.00 0.00 0.00 80 1015.4
20260903060927 81 120 6.0 7.0 0.00 0.00 0.00 80 1015.4
20260903060422 81 160 2.0 3.0 0.00 0.00 0.00 81 1015.3
20260903055921 81 191 5.0 7.0 0.00 0.00 0.00 81 1015.4
20260903055419 81 124 4.0 4.0 0.00 0.00 0.00 81 1015.4
20260903054914 81 72 1.0 3.0 0.00 0.00 0.00 81 1015.5
20260903054414 81 149 7.0 9.0 0.00 0.00 0.00 81 1015.4
20260903053910 81 157 9.0 10.0 0.00 0.00 0.00 81 1015.1
20260903053410 81 106 3.0 4.0 0.00 0.00 0.00 81 1015.1
20260903052907 81 116 2.0 2.0 0.00 0.00 0.00 81 1015.3
20260903052402 81 130 5.0 7.0 0.00 0.00 0.00 81 1015.4
20260903051857 80 115 2.0 2.0 0.00 0.00 0.00 81 1015.1
20260903051352 80 135 1.0 1.0 0.00 0.00 0.00 81 1015.4
20260903050848 80 105 3.0 4.0 0.00 0.00 0.00 81 1015.5
20260903050347 80 83 4.0 4.0 0.00 0.00 0.00 81 1015.3
20260903045842 80 168 2.0 3.0 0.00 0.00 0.00 81 1015.3
20260903045338 80 116 6.0 7.0 0.00 0.00 0.00 81 1015.2
20260903044834 80 93 2.0 4.0 0.00 0.00 0.00 81 1015.3
20260903044329 80 132 3.0 3.0 0.00 0.00 0.00 81 1015.1
20260903043825 80 129 4.0 6.0 0.00 0.00 0.00 81 1015.1
20260903043320 80 92 6.0 8.0 0.00 0.00 0.00 81 1015.2
20260903042819 80 143 3.0 3.0 0.00 0.00 0.00 80 1015.2
20260903042315 80 79 4.0 7.0 0.00 0.00 0.00 80 1015.2
20260903041811 81 143 5.0 7.0 0.00 0.00 0.00 80 1015.2
20260903041307 81 105 3.0 4.0 0.00 0.00 0.00 79 1015.3
20260903040807 81 96 5.0 6.0 0.00 0.00 0.00 79 1015.2
20260903040306 81 94 2.0 3.0 0.00 0.00 0.00 78 1015.3
20260903035803 81 21 1.0 2.0 0.00 0.00 0.00 77 1015.0
20260903035257 82 99 7.0 8.0 0.00 0.00 0.00 76 1015.2
20260903034753 82 96 6.0 8.0 0.00 0.00 0.00 76 1015.2
20260903034248 82 107 8.0 10.0 0.00 0.00 0.00 74 1015.3
20260903033743 82 76 6.0 9.0 0.00 0.00 0.00 74 1015.3
20260903033238 83 76 5.0 8.0 0.00 0.00 0.00 72 1015.5
20260903032732 84 76 3.0 6.0 0.00 0.00 0.00 67 1015.4
20260903032228 85 88 5.0 6.0 0.00 0.00 0.00 66 1015.2
20260903031723 85 81 12.0 14.0 0.00 0.00 0.00 66 1015.1
20260903031217 85 101 7.0 10.0 0.00 0.00 0.00 65 1015.0
20260903030714 86 96 2.0 3.0 0.00 0.00 0.00 64 1015.0
20260903030209 86 90 6.0 8.0 0.00 0.00 0.00 62 1014.8
20260903025704 86 85 6.0 8.0 0.00 0.00 0.00 62 1014.5
20260903025200 87 53 5.0 9.0 0.00 0.00 0.00 60 1014.7
20260903024654 87 77 8.0 9.0 0.00 0.00 0.00 58 1014.4
20260903024153 88 81 5.0 7.0 0.00 0.00 0.00 58 1014.1
20260903023649 88 58 6.0 7.0 0.00 0.00 0.00 57 1014.1
20260903023143 88 78 1.0 1.0 0.00 0.00 0.00 57 1013.9
20260903022638 88 73 5.0 6.0 0.00 0.00 0.00 56 1013.6
20260903022137 89 128 3.0 3.0 0.00 0.00 0.00 56 1013.8
20260903021637 88 96 2.0 2.0 0.00 0.00 0.00 56 1013.7
20260903021132 88 39 1.0 1.0 0.00 0.00 0.00 57 1013.6
20260903020627 89 26 1.0 1.0 0.00 0.00 0.00 56 1013.5
20260903020121 89 32 1.0 2.0 0.00 0.00 0.00 56 1013.2
20260903015618 89 84 1.0 2.0 0.00 0.00 0.00 55 1012.9
20260903015112 89 85 1.0 2.0 0.00 0.00 0.00 55 1013.1
20260903014606 89 87 5.0 6.0 0.00 0.00 0.00 55 1013.1
20260903014101 89 111 5.0 6.0 0.00 0.00 0.00 55 1013.1
20260903013601 90 43 2.0 2.0 0.00 0.00 0.00 55 1012.9
20260903013055 90 46 3.0 6.0 0.00 0.00 0.00 55 1012.9
20260903012554 90 114 4.0 6.0 0.00 0.00 0.00 55 1013.0
20260903012049 90 103 2.0 3.0 0.00 0.00 0.00 55 1012.9
20260903011548 90 85 1.0 2.0 0.00 0.00 0.00 54 1013.1
20260903011038 90 100 4.0 4.0 0.00 0.00 0.00 54 1013.0
20260903010533 90 86 5.0 7.0 0.00 0.00 0.00 53 1013.0
20260903010032 91 103 4.0 4.0 0.00 0.00 0.00 52 1012.9
20260903005532 91 74 3.0 4.0 0.00 0.00 0.00 51 1012.9
20260903005027 92 115 5.0 8.0 0.00 0.00 0.00 50 1013.0
20260903004526 92 140 6.0 7.0 0.00 0.00 0.00 49 1012.9
20260903004022 92 126 6.0 6.0 0.00 0.00 0.00 48 1012.9
20260903003517 92 83 4.0 6.0 0.00 0.00 0.00 49 1013.1
20260903003013 92 148 1.0 1.0 0.00 0.00 0.00 50 1012.9
20260903002512 92 125 1.0 2.0 0.00 0.00 0.00 50 1013.1
20260903002008 91 124 3.0 4.0 0.00 0.00 0.00 51 1013.0
20260903001502 91 115 4.0 4.0 0.00 0.00 0.00 51 1012.9
20260903001002 92 150 4.0 4.0 0.00 0.00 0.00 51 1013.0
20260903000457 91 182 4.0 8.0 0.00 0.00 0.00 50 1013.0
20260902235955 91 199 2.0 2.0 0.00 0.00 0.00 51 1013.1